< < Back
Terminal Aerodrome Forecast


Current Version              Previous Versions:   1  2  3  4  5  6  7  8  9  

Terminal Aerodrome Forecast

246
FTUS42 KILM 261749 CCB
TAFFLO
TAF COR
KFLO 261749Z 2618/2718 21011G16KT P6SM SCT030 BKN100
     FM270400 23008KT 3SM -SHRA BR SCT015 BKN025
      TEMPO 2709/2713 1SM TSRA SCT007 BKN015CB
     FM271500 32013G17KT 2SM -RA BR OVC010=

Latest METAR

667
SAUS70 KWBC 261900 RRB
MTRFLO
METAR KFLO 261853Z 24011G18KT 10SM FEW036 BKN046 BKN075 25/13 A2986 RMK
AO2 SLP108 T02500133


USA.gov is the U.S. government's official web portal to all federal, state and local government web resources and services.